PBO Station Position Time Series. Reference Frame : NAM14
Format Version,1.1.1
4-character ID,P467
Station name,AlabamaHilCS2006
Begin Date, 2006-03-17
End Date, 2023-06-26
Release Date, 2023-06-27
Reference position, 36.5702019977 North Latitude, -118.0906237929 East Longitude, 1380.11801 meters elevation,
Date, North (mm), East (mm), Vertical (mm), North Std. Deviation (mm), East Std. Deviation (mm),              Vertical Std. Deviation (mm), Quality,
2006-03-17,0.00, 0.00, 0.00, 2.21, 1.81, 8.44, repro,
2006-03-18,-0.39, -2.48, -4.27, 2.05, 1.69, 7.87, repro,
2006-03-19,-0.26, -1.99, -5.23, 2.06, 1.70, 7.90, repro,
2006-03-20,-1.05, -1.70, -4.28, 2.08, 1.69, 7.90, repro,
2006-03-21,-1.40, -3.29, -9.56, 2.05, 1.69, 7.79, repro,
2006-03-22,0.12, -2.34, -10.36, 2.05, 1.68, 7.81, repro,
2006-03-23,-0.50, -1.00, -9.44, 2.10, 1.71, 7.98, repro,
2006-03-24,-0.61, -0.52, -1.71, 2.13, 1.70, 8.05, repro,
2006-03-25,-4.50, 1.44, -7.82, 2.19, 1.75, 8.29, repro,
2006-03-26,-0.34, -2.59, 0.02, 2.44, 1.93, 9.23, repro,
2006-03-27,0.66, -0.82, -1.92, 2.11, 1.72, 8.04, repro,
2006-03-28,-4.95, -3.02, 1.00, 2.04, 1.69, 7.85, repro,
2006-03-29,0.55, -2.22, -11.98, 2.01, 1.69, 7.83, repro,
2006-03-30,0.05, -2.75, 3.12, 2.01, 1.66, 7.82, repro,
2006-03-31,-2.12, -3.47, -3.43, 2.02, 1.66, 7.77, repro,
2006-04-01,0.36, -2.61, 4.98, 2.02, 1.67, 7.84, repro,
2006-04-02,-0.38, -1.61, -1.76, 2.00, 1.66, 7.77, repro,
2006-04-03,-3.61, 0.34, 4.60, 2.01, 1.66, 7.81, repro,
2006-04-04,-0.26, -8.23, -38.11, 2.04, 1.68, 7.94, repro,
2006-04-05,-2.43, -6.66, -10.51, 2.05, 1.74, 8.19, repro,
2006-04-06,-0.30, -2.54, -2.09, 2.04, 1.70, 7.88, repro,
2006-04-07,-0.64, -4.39, -6.02, 2.12, 1.80, 8.30, repro,
2006-04-08,-2.30, -3.28, 3.39, 2.08, 1.73, 8.11, repro,
2006-04-09,-3.84, -4.44, -3.87, 2.00, 1.68, 7.83, repro,
2006-04-10,-0.31, -4.22, -1.16, 2.06, 1.68, 7.86, repro,
2006-04-11,-1.19, -4.62, -13.29, 2.06, 1.68, 8.03, repro,
2006-04-12,-3.37, -6.60, -16.89, 2.07, 1.69, 8.08, repro,
2006-04-13,-3.58, -7.02, -18.65, 2.00, 1.65, 7.70, repro,
2006-04-14,0.18, -6.81, -19.84, 2.01, 1.66, 7.81, repro,
2006-04-15,0.96, -2.17, -2.06, 2.10, 1.71, 8.10, repro,
2006-04-16,-1.95, -2.95, -4.84, 2.03, 1.72, 8.02, repro,
2006-04-17,-5.60, -8.50, 1.66, 2.02, 1.69, 7.86, repro,
2006-04-18,0.28, -2.72, -3.39, 2.06, 1.78, 8.35, repro,
2006-04-19,1.24, -3.10, -11.28, 2.00, 1.67, 7.83, repro,
2006-04-20,-0.07, -3.80, -3.16, 2.08, 1.76, 8.32, repro,
2006-04-21,1.69, -3.69, -8.52, 2.01, 1.66, 7.79, repro,
2006-04-22,-2.23, -2.56, -3.51, 2.05, 1.76, 8.18, repro,
2006-04-23,0.30, -3.27, -12.34, 2.04, 1.72, 8.06, repro,
2006-04-24,-0.12, -3.53, -9.32, 2.04, 1.73, 8.12, repro,
2006-04-25,0.53, -2.70, -13.26, 2.06, 1.74, 8.20, repro,
2006-04-26,1.81, -2.96, -10.38, 2.09, 1.75, 8.22, repro,
2006-04-27,1.19, -2.84, -11.39, 2.13, 1.77, 8.27, repro,
2006-04-28,3.38, -3.01, -12.53, 2.07, 1.69, 7.95, repro,
2006-04-29,-0.75, -4.17, -10.53, 2.01, 1.66, 7.88, repro,
2006-04-30,0.13, -3.35, -3.35, 2.02, 1.67, 7.89, repro,
2006-05-01,1.91, -1.14, -8.35, 2.04, 1.66, 7.92, repro,
2006-05-02,-0.53, -3.61, -6.64, 2.04, 1.67, 7.89, repro,
2006-05-03,-1.09, -2.43, 0.01, 2.03, 1.68, 7.84, repro,
2006-05-04,1.42, -2.30, -7.20, 2.00, 1.65, 7.79, repro,
2006-05-05,0.83, -2.89, -12.78, 2.03, 1.67, 7.94, repro,
2006-05-06,1.22, -2.92, -9.93, 2.02, 1.66, 7.83, repro,
2006-05-07,0.46, -3.70, -7.46, 2.03, 1.66, 7.81, repro,
2006-05-08,-0.49, -2.95, -8.48, 2.07, 1.73, 8.12, repro,
2006-05-09,0.56, -3.20, -5.27, 2.08, 1.69, 8.05, repro,
2006-05-10,0.51, -3.36, -12.24, 2.02, 1.70, 7.96, repro,
2006-05-11,-1.20, -1.49, -3.93, 2.05, 1.71, 8.13, repro,
2006-05-12,-0.13, -3.68, -7.91, 2.05, 1.70, 7.99, repro,
2006-05-13,0.64, -2.82, -6.24, 2.02, 1.66, 7.84, repro,
2006-05-14,0.01, -3.47, -16.62, 2.02, 1.67, 7.92, repro,
2006-05-15,-0.16, -1.94, -7.47, 2.01, 1.66, 7.82, repro,
2006-05-16,-1.19, -2.38, -3.51, 2.04, 1.71, 7.97, repro,
2006-05-17,0.42, -3.40, -9.14, 2.05, 1.71, 7.97, repro,
2006-05-18,1.19, -3.01, 1.43, 2.10, 1.69, 7.99, repro,
2006-05-19,-3.09, -2.28, 1.38, 2.15, 1.71, 8.21, repro,
2006-05-20,-6.83, -3.89, -0.34, 2.31, 1.91, 8.95, repro,
2006-05-21,-9.02, -6.82, -4.69, 2.19, 1.78, 8.52, repro,
2006-05-22,-1.55, -3.43, 1.84, 2.11, 1.74, 8.17, repro,
2006-05-23,-0.64, -4.24, -7.57, 2.08, 1.66, 7.89, repro,
2006-05-24,-0.50, -2.95, -5.26, 2.13, 1.72, 8.23, repro,
2006-05-25,-1.01, -2.46, 0.45, 2.23, 1.76, 8.62, repro,
2006-05-26,-0.48, -1.74, -4.89, 2.24, 1.72, 8.51, repro,
2006-05-27,-3.28, -1.21, -1.03, 2.10, 1.68, 7.99, repro,
2006-05-28,0.75, -3.52, -2.86, 2.08, 1.66, 7.94, repro,
2006-05-29,0.48, -1.47, -2.58, 2.13, 1.71, 8.17, repro,
2006-05-30,-0.40, -1.93, -2.13, 2.18, 1.76, 8.41, repro,
2006-05-31,0.09, -1.10, -8.02, 2.32, 1.84, 9.05, repro,
2006-06-01,0.44, -1.35, -1.98, 2.15, 1.71, 8.23, repro,
2006-06-02,1.78, -3.34, -5.87, 2.22, 1.76, 8.42, repro,
2006-06-03,-1.24, -2.24, -5.29, 2.17, 1.72, 8.21, repro,
2006-06-04,-1.58, -0.65, -4.90, 2.14, 1.72, 8.14, repro,
2006-06-05,-1.72, -1.82, -0.27, 2.15, 1.71, 8.22, repro,
2006-06-06,-0.09, -2.54, -0.73, 2.15, 1.71, 8.19, repro,
2006-06-07,-0.85, -2.35, -4.62, 2.19, 1.74, 8.39, repro,
2006-06-08,0.07, -2.20, -0.96, 2.08, 1.67, 8.00, repro,
2006-06-09,0.24, -2.58, -6.42, 2.09, 1.68, 8.05, repro,
2006-06-10,-0.78, -0.74, -0.70, 2.11, 1.72, 8.28, repro,
2006-06-11,-2.15, -0.48, 2.01, 2.15, 1.72, 8.25, repro,
2006-06-12,-5.23, -1.20, 0.25, 2.18, 1.78, 8.34, repro,
2006-06-13,-4.29, -4.88, -20.26, 2.14, 1.71, 8.24, repro,
2006-06-14,-1.14, 1.43, 1.45, 2.07, 1.66, 7.93, repro,
2006-06-15,0.81, -1.99, -2.05, 2.11, 1.70, 8.13, repro,
2006-06-16,-0.70, -0.46, 1.46, 2.11, 1.69, 8.08, repro,
2006-06-17,-0.19, -0.97, -0.97, 2.11, 1.68, 8.07, repro,
2006-06-18,-0.94, -0.94, 2.97, 2.11, 1.73, 8.35, repro,
2006-06-19,0.95, -2.92, -1.07, 2.16, 1.77, 8.42, repro,
2006-06-20,-0.69, -0.13, -0.16, 2.15, 1.78, 8.38, repro,
2006-06-21,-0.98, -0.87, -0.36, 2.15, 1.78, 8.40, repro,
2006-06-22,-0.81, -1.23, -3.45, 2.13, 1.73, 8.29, repro,
2006-06-23,0.15, -1.15, -14.61, 2.14, 1.73, 8.33, repro,
2006-06-24,-0.61, -1.48, -10.23, 2.13, 1.72, 8.28, repro,
2006-06-25,-0.32, -0.14, -8.31, 2.11, 1.72, 8.25, repro,
2006-06-26,-1.86, 0.24, -3.59, 2.22, 1.89, 8.64, repro,
2006-06-27,-1.91, -2.09, -7.63, 2.22, 1.86, 8.68, repro,
2006-06-28,0.35, -0.46, -9.74, 2.18, 1.80, 8.59, repro,
2006-06-29,-0.14, -1.04, -3.21, 2.09, 1.75, 8.21, repro,
2006-06-30,-1.66, -0.56, -2.16, 2.07, 1.68, 8.11, repro,
2006-07-01,-1.23, 1.02, 2.09, 2.08, 1.71, 8.21, repro,
2006-07-02,-0.48, 0.17, -7.66, 2.13, 1.76, 8.41, repro,
2006-07-03,0.21, -0.59, -14.75, 2.08, 1.69, 8.11, repro,
2006-07-04,-0.91, -0.03, -2.01, 2.09, 1.69, 8.16, repro,
2006-07-05,-2.17, -1.73, -5.71, 2.08, 1.69, 8.22, repro,
2006-07-06,0.35, -1.13, -19.92, 2.11, 1.74, 8.46, repro,
2006-07-07,-1.20, -0.82, -17.01, 2.08, 1.68, 8.17, repro,
2006-07-08,-1.97, -0.85, -16.52, 2.08, 1.70, 8.20, repro,
2006-07-09,-0.54, -0.11, -12.59, 2.09, 1.68, 8.10, repro,
2006-07-10,-0.19, -1.81, -8.21, 2.09, 1.68, 8.17, repro,
2006-07-11,-0.82, -0.12, -6.00, 2.08, 1.66, 8.13, repro,
2006-07-12,-2.63, 0.33, -12.65, 2.09, 1.69, 8.19, repro,
2006-07-13,-2.10, -0.02, -0.95, 2.08, 1.68, 8.05, repro,
2006-07-14,-0.95, 0.01, -4.04, 2.08, 1.67, 8.11, repro,
2006-07-15,-1.56, 0.44, -0.97, 2.09, 1.69, 8.18, repro,
2006-07-16,-1.62, -0.75, -9.99, 2.10, 1.69, 8.25, repro,
2006-07-17,-1.21, 1.04, -4.14, 2.18, 1.80, 8.69, repro,
2006-07-18,-3.37, 0.04, 3.51, 2.02, 1.66, 7.83, repro,
2006-07-19,-2.76, -0.46, 0.38, 2.02, 1.67, 7.91, repro,
2006-07-20,-1.15, -0.30, -7.97, 2.13, 1.74, 8.36, repro,
2006-07-21,-0.36, 1.03, -9.14, 2.05, 1.72, 8.05, repro,
2006-07-22,-2.13, 2.04, -0.92, 2.17, 1.79, 8.45, repro,
2006-07-23,0.74, -0.43, -11.63, 2.00, 1.66, 7.83, repro,
2006-07-24,0.06, -0.66, -9.33, 2.02, 1.67, 7.86, repro,
2006-07-25,-0.33, 1.10, -3.30, 2.01, 1.66, 7.94, repro,
2006-07-26,-1.84, 2.22, -0.85, 2.06, 1.72, 8.01, repro,
2006-07-27,-0.13, -0.81, -9.35, 2.05, 1.72, 8.09, repro,
2006-07-28,0.34, 2.54, -4.21, 2.10, 1.78, 8.41, repro,
2006-07-29,-2.38, 1.81, -10.21, 2.02, 1.68, 7.88, repro,
2006-07-30,0.61, 1.25, 8.56, 2.41, 2.10, 10.24, repro,
2006-07-31,-0.39, 2.70, 22.64, 2.75, 2.56, 13.02, repro,
2006-08-01,-2.61, 2.74, 30.78, 4.27, 4.08, 21.24, repro,
2006-08-02,-1.87, 0.10, -2.90, 4.40, 4.66, 24.77, repro,
2006-08-03,-3.09, 2.08, 11.00, 4.19, 4.25, 22.44, repro,
2006-08-04,1.06, -4.04, 4.23, 4.32, 4.29, 22.64, repro,
2006-08-05,1.20, -1.83, -7.81, 3.96, 3.97, 20.96, repro,
2006-08-06,3.35, 0.00, -7.66, 4.26, 4.60, 23.37, repro,
2006-08-07,2.30, 3.43, 26.47, 4.05, 4.04, 21.19, repro,
2006-08-08,-0.40, 1.71, -8.73, 4.09, 3.88, 20.20, repro,
2006-08-09,-0.53, -2.92, -9.94, 4.12, 4.05, 20.86, repro,
2006-08-10,2.86, 1.37, -11.83, 4.46, 4.30, 21.84, repro,
2006-08-11,-0.45, -1.34, -5.33, 4.25, 4.00, 20.66, repro,
2006-08-12,2.48, -0.50, 14.48, 4.17, 3.99, 21.27, repro,
2006-08-13,-1.19, -0.61, 4.69, 4.20, 3.96, 20.34, repro,
2006-08-14,-3.81, -3.19, 9.97, 4.10, 3.90, 19.82, repro,
2006-08-15,0.30, 0.48, 2.19, 4.25, 4.04, 21.66, repro,
2006-08-16,1.51, -0.02, -3.91, 4.16, 4.01, 20.28, repro,
2006-08-17,2.49, -1.18, -3.08, 4.49, 4.39, 23.22, repro,
2006-08-18,-1.35, 1.02, 7.21, 4.14, 3.95, 21.03, repro,
2006-08-19,-0.61, 3.10, -13.51, 4.12, 3.99, 20.14, repro,
2006-08-20,0.99, 0.73, 4.76, 4.12, 4.09, 21.38, repro,
2006-08-21,2.74, -0.04, -10.73, 4.10, 4.00, 20.38, repro,
2006-08-22,-0.09, 3.63, 23.65, 4.54, 4.39, 22.60, repro,
2006-08-23,-0.27, 3.18, 5.13, 4.32, 4.09, 20.96, repro,
2006-08-24,0.35, 1.64, -11.63, 4.31, 4.05, 20.38, repro,
2006-08-25,0.86, -2.51, -9.29, 4.30, 4.05, 21.26, repro,
2006-08-26,-0.40, -0.44, 8.39, 4.52, 4.76, 24.00, repro,
2006-08-27,-1.69, 1.90, 0.39, 4.37, 4.26, 22.09, repro,
2006-08-28,-1.50, 3.48, 14.44, 4.43, 4.31, 21.81, repro,
2006-08-29,-0.59, -0.90, 1.85, 4.36, 4.75, 23.61, repro,
2006-08-30,0.24, -1.15, 5.51, 4.39, 4.25, 22.69, repro,
2006-08-31,0.25, -1.71, -12.40, 4.27, 4.16, 20.35, repro,
2006-09-01,1.85, 0.51, -8.57, 4.23, 4.20, 20.84, repro,
2006-09-02,1.04, 0.24, 2.49, 4.20, 4.07, 21.50, repro,
2006-09-03,-1.60, 3.05, 16.33, 4.81, 4.99, 25.00, repro,
2006-09-04,-1.80, 7.29, 23.10, 4.80, 5.10, 27.23, repro,
2006-09-05,-0.53, 4.29, 5.77, 4.45, 4.64, 24.21, repro,
2006-09-06,2.31, -1.33, -6.61, 4.49, 5.02, 25.21, repro,
2006-09-07,1.20, 1.54, 19.31, 4.33, 4.54, 23.00, repro,
2006-09-08,-2.55, 2.69, -10.63, 4.48, 4.52, 22.70, repro,
2006-09-09,-2.86, 1.36, 9.84, 4.25, 4.23, 21.23, repro,
2006-09-10,-0.25, -0.40, -1.07, 4.35, 4.43, 22.20, repro,
2006-09-11,1.58, 0.19, 6.77, 4.49, 4.26, 22.52, repro,
2006-09-12,-0.85, 1.66, 1.52, 4.51, 4.37, 21.63, repro,
2006-09-13,2.67, -2.33, -3.94, 4.73, 4.37, 23.14, repro,
2006-09-14,1.57, -3.80, -5.18, 4.68, 4.96, 23.45, repro,
2006-09-15,0.86, 0.54, 23.51, 4.40, 4.17, 21.67, repro,
2006-09-16,-0.51, 5.55, 16.11, 4.23, 4.18, 21.38, repro,
2006-09-17,-2.86, 0.47, 11.76, 4.18, 4.09, 21.28, repro,
2006-09-18,-0.30, 0.24, 14.31, 4.33, 4.19, 20.94, repro,
2006-09-19,-1.98, 1.61, 23.92, 4.26, 4.19, 21.17, repro,
2006-09-20,-1.52, 4.30, 23.21, 4.03, 4.04, 19.88, repro,
2006-09-21,-2.73, 2.15, 1.94, 4.32, 4.38, 21.17, repro,
2006-09-22,2.38, 2.19, -3.17, 4.18, 4.26, 21.52, repro,
2006-09-23,1.96, -3.10, 8.25, 4.60, 4.34, 23.11, repro,
2006-09-24,0.74, -0.11, 5.52, 4.83, 5.13, 27.23, repro,
2006-09-25,24.68, 127.11, 284.12, 213.39, 594.51, 1384.80, repro,
2006-09-26,1.22, 3.68, 16.15, 4.68, 4.40, 22.83, repro,
2006-09-27,-1.12, 4.01, 7.02, 4.58, 4.28, 22.86, repro,
2006-09-28,0.60, -1.11, -0.10, 4.47, 3.98, 21.04, repro,
2006-09-29,-2.25, 2.08, 10.75, 4.63, 4.08, 21.66, repro,
2006-09-30,1.39, -4.15, -7.77, 4.55, 4.22, 22.82, repro,
2006-10-01,-2.01, 2.51, 25.11, 4.68, 4.27, 22.91, repro,
2006-10-02,2.32, -2.10, 1.26, 4.77, 4.50, 21.81, repro,
2006-10-03,-3.88, 2.35, 6.56, 4.65, 4.64, 24.22, repro,
2006-10-04,-1.07, 5.04, 24.21, 4.60, 4.24, 22.08, repro,
2006-10-05,-2.95, 0.43, 4.79, 4.62, 4.49, 22.48, repro,
2006-10-06,-0.48, -0.22, 4.23, 4.20, 4.20, 21.13, repro,
2006-10-07,-5.00, 1.67, -1.78, 4.43, 4.28, 22.02, repro,
2006-10-08,0.29, -0.33, -10.84, 4.44, 4.04, 21.19, repro,
2006-10-09,-1.39, -0.28, -4.63, 4.41, 4.13, 21.11, repro,
2006-10-10,-2.86, 2.67, 15.53, 4.37, 4.27, 21.63, repro,
2006-10-11,-2.89, -3.85, 5.28, 4.52, 4.30, 22.40, repro,
2006-10-12,-2.48, 1.60, 6.25, 4.44, 4.37, 23.08, repro,
2006-10-13,-0.32, -1.09, -7.08, 4.38, 4.21, 22.87, repro,
2006-10-14,-1.91, 4.94, 14.47, 4.44, 4.12, 20.40, repro,
2006-10-15,-2.21, -0.12, 5.80, 4.41, 4.21, 20.62, repro,
2006-10-16,0.43, -3.08, -16.29, 4.38, 4.40, 23.14, repro,
2006-10-17,4.24, 2.25, 14.26, 5.10, 5.61, 27.36, repro,
2006-10-18,-0.86, 0.46, -0.13, 4.31, 4.20, 20.64, repro,
2006-10-19,-0.29, -1.14, 8.85, 4.88, 5.42, 25.11, repro,
2006-10-20,1.23, 2.16, 7.34, 5.06, 5.22, 25.64, repro,
2006-10-21,-0.97, 3.05, -2.17, 4.77, 4.96, 24.70, repro,
2006-10-22,-2.01, 0.73, -2.04, 4.34, 4.41, 21.62, repro,
2006-10-23,-2.52, -0.26, -4.32, 4.29, 4.74, 23.98, repro,
2006-10-24,-0.35, -1.57, 14.91, 4.89, 5.52, 26.18, repro,
2006-10-25,0.11, -0.49, -0.06, 5.08, 5.76, 28.05, repro,
2006-10-26,-2.33, 0.65, 17.10, 4.80, 5.26, 25.43, repro,
2006-10-27,0.49, 1.65, 2.71, 4.24, 4.25, 20.76, repro,
2006-10-28,-0.91, 2.00, 3.88, 5.06, 5.20, 25.39, repro,
2006-10-29,-3.54, 1.40, 17.47, 4.23, 4.10, 20.74, repro,
2006-10-30,-1.85, -0.19, 4.31, 4.07, 4.13, 19.97, repro,
2006-10-31,-1.67, 0.93, 9.23, 4.75, 4.99, 25.39, repro,
2006-11-01,-3.85, 2.23, -1.75, 4.48, 4.96, 24.45, repro,
2006-11-02,1.54, -0.38, -2.74, 4.60, 4.85, 23.81, repro,
2006-11-03,-2.51, -3.22, -8.02, 4.22, 4.36, 21.36, repro,
2006-11-04,-2.20, -2.74, -22.02, 4.43, 4.39, 21.56, repro,
2006-11-05,-3.09, -0.30, -9.15, 4.14, 4.15, 20.98, repro,
2006-11-06,-1.49, -0.52, -3.19, 4.03, 4.17, 20.13, repro,
2006-11-07,-2.28, -0.11, -5.37, 4.40, 4.33, 20.80, repro,
2006-11-08,-1.95, -1.70, -14.30, 4.21, 4.52, 21.82, repro,
2006-11-09,-3.73, 2.02, 22.25, 4.28, 4.24, 21.07, repro,
2006-11-10,-3.04, -0.04, -3.50, 4.25, 4.27, 20.95, repro,
2006-11-11,-2.85, 9.94, 26.81, 4.02, 4.19, 20.55, repro,
2006-11-12,-3.00, -3.16, -2.46, 4.36, 4.33, 21.42, repro,
2006-11-13,3.19, 5.32, 7.60, 4.23, 4.20, 21.04, repro,
2006-11-14,3.14, 12.07, 18.07, 4.01, 4.12, 21.30, repro,
2006-11-15,-1.18, -1.81, -6.87, 3.83, 4.10, 19.38, repro,
2006-11-16,-0.31, 4.51, 30.69, 3.98, 4.03, 18.63, repro,
2006-11-17,-2.88, 3.82, 23.36, 4.07, 4.14, 20.79, repro,
2006-11-18,0.64, 3.60, 7.02, 4.07, 4.07, 20.30, repro,
2006-11-19,-0.65, 0.40, 7.99, 3.99, 4.09, 19.84, repro,
2006-11-20,0.91, 1.61, -0.11, 4.06, 4.27, 20.00, repro,
2006-11-21,-2.89, 3.41, 9.92, 4.12, 4.39, 20.66, repro,
2006-11-22,-2.72, 6.14, 5.59, 3.92, 4.07, 19.81, repro,
2006-11-23,-4.93, 6.87, 22.62, 4.15, 4.23, 21.40, repro,
2006-11-24,-2.22, 0.46, -6.67, 4.01, 4.20, 20.76, repro,
2006-11-25,-0.80, -0.31, -9.63, 3.90, 3.99, 19.91, repro,
2006-11-26,-0.93, -0.16, -9.29, 3.73, 3.84, 18.45, repro,
2006-11-27,-4.13, -6.90, -1.56, 3.77, 4.02, 19.20, repro,
2006-11-28,-0.48, -0.81, 2.08, 3.80, 4.03, 19.00, repro,
2006-11-29,-1.02, -2.47, -7.14, 3.93, 4.20, 20.65, repro,
2006-11-30,1.78, -1.42, -4.13, 4.03, 4.15, 21.11, repro,
2006-12-01,-1.01, -0.56, -16.08, 4.01, 3.98, 19.99, repro,
2006-12-02,-0.81, -0.34, -13.43, 4.00, 4.21, 20.77, repro,
2006-12-03,-1.37, -1.11, -9.51, 3.82, 3.98, 18.74, repro,
2006-12-04,-2.22, 1.72, -4.32, 3.97, 4.10, 21.00, repro,
2006-12-05,2.68, -3.27, -7.70, 4.08, 4.27, 20.40, repro,
2006-12-06,-0.27, 1.12, -9.17, 3.90, 4.12, 20.62, repro,
2006-12-07,-2.84, -3.42, -16.27, 3.84, 4.13, 19.86, repro,
2006-12-08,-1.31, -0.53, 3.99, 4.00, 4.19, 20.15, repro,
2006-12-09,1.14, -1.75, 17.76, 4.21, 4.23, 20.80, repro,
2006-12-10,-2.33, 1.48, -9.11, 3.87, 4.05, 20.19, repro,
2006-12-11,2.05, -0.58, 1.54, 6.01, 6.23, 27.35, repro,
2006-12-12,-1.63, -1.66, -3.70, 2.17, 1.87, 8.56, repro,
2006-12-13,-0.28, -0.10, -8.22, 2.09, 1.87, 8.39, repro,
2006-12-14,-0.04, -1.75, -1.99, 2.05, 1.80, 8.23, repro,
2006-12-15,-2.89, -1.98, -3.20, 2.14, 1.88, 8.46, repro,
2006-12-16,0.22, -4.90, -17.38, 2.07, 1.84, 8.15, repro,
2006-12-17,0.20, -0.11, -10.32, 2.14, 1.93, 8.68, repro,
2006-12-18,-1.31, -0.51, 0.25, 2.42, 2.20, 9.78, repro,
2006-12-19,0.39, 0.03, -1.02, 2.20, 2.03, 8.87, repro,
2006-12-20,-1.63, -0.35, -3.60, 2.21, 1.99, 8.73, repro,
2006-12-21,-1.08, -1.11, -7.86, 2.07, 1.95, 8.41, repro,
2006-12-22,0.66, 2.28, 12.37, 2.21, 1.98, 8.88, repro,
2006-12-23,0.60, -1.03, -12.37, 2.15, 1.95, 8.59, repro,
2006-12-24,-0.86, 0.40, -9.49, 2.01, 1.75, 8.00, repro,
2006-12-25,-0.18, 0.33, -4.02, 2.09, 1.89, 8.29, repro,
2006-12-26,-3.23, 8.82, 19.58, 2.10, 1.84, 8.45, repro,
2006-12-27,-2.21, -5.13, -23.88, 2.12, 1.89, 8.54, repro,
2006-12-28,3.10, -3.46, -10.59, 2.42, 2.45, 10.50, repro,
2006-12-29,-0.42, -2.39, -7.16, 2.22, 2.05, 9.23, repro,
2006-12-30,-0.17, -1.23, -9.21, 2.15, 1.88, 8.54, repro,
2006-12-31,-0.36, -0.75, -8.37, 2.26, 2.00, 9.34, repro,
2007-01-01,0.29, 0.64, -0.39, 2.35, 2.20, 9.71, repro,
2007-01-02,-0.17, -0.15, -5.45, 2.28, 2.19, 9.58, repro,
2007-01-03,0.06, -0.53, -7.21, 2.13, 2.01, 8.77, repro,
2007-01-04,-1.19, 0.84, 2.11, 2.01, 1.78, 8.09, repro,
2007-01-05,2.90, -3.84, -4.71, 2.02, 1.83, 8.06, repro,
2007-01-06,-0.48, -0.15, -5.11, 2.03, 1.84, 8.20, repro,
2007-01-07,0.51, 0.10, -8.58, 2.02, 1.77, 8.04, repro,
2007-01-08,-0.13, -2.17, -11.38, 2.08, 1.83, 8.21, repro,
2007-01-09,-0.09, -0.96, -14.01, 2.04, 1.76, 7.86, repro,
2007-01-10,-0.20, 0.25, -6.55, 2.03, 1.75, 7.81, repro,
2007-01-11,-2.58, 2.11, -0.35, 2.09, 1.73, 8.00, repro,
2007-01-12,-0.92, -1.43, -7.83, 2.01, 1.71, 7.92, repro,
2007-01-13,-0.29, -0.28, -10.60, 1.97, 1.69, 7.68, repro,
2007-01-14,-0.35, -0.26, -13.55, 1.98, 1.69, 7.70, repro,
2007-01-15,-0.28, -1.52, -21.20, 2.35, 2.15, 9.69, repro,
2007-01-16,0.32, -0.99, -12.06, 2.00, 1.68, 7.73, repro,
2007-01-17,-0.55, -0.30, -7.63, 2.00, 1.74, 7.88, repro,
2007-01-18,-0.08, -1.52, -18.57, 2.10, 1.82, 8.44, repro,
2007-01-19,1.11, 0.36, -17.56, 2.04, 1.72, 7.99, repro,
2007-01-20,-1.04, -0.04, -9.87, 2.04, 1.72, 7.97, repro,
2007-01-21,0.46, -1.18, -13.47, 1.97, 1.70, 7.64, repro,
2007-01-22,-0.89, -0.20, -7.94, 1.99, 1.68, 7.68, repro,
2007-01-23,-0.09, 0.20, -15.68, 2.00, 1.73, 7.89, repro,
2007-01-24,-0.63, 0.05, -12.38, 1.98, 1.70, 7.70, repro,
2007-01-25,-0.50, -0.37, -18.14, 2.12, 1.80, 8.17, repro,
2007-01-26,-0.74, 0.12, -12.63, 1.96, 1.69, 7.56, repro,
2007-01-27,0.42, 0.68, -8.70, 1.97, 1.69, 7.54, repro,
2007-01-28,0.06, 0.70, -9.69, 1.97, 1.70, 7.56, repro,
2007-01-29,-0.20, 0.27, -14.51, 2.02, 1.74, 7.86, repro,
2007-01-30,-0.30, -0.34, -11.97, 2.00, 1.75, 7.76, repro,
2007-01-31,-1.95, -1.21, -2.60, 1.96, 1.69, 7.57, repro,
2007-02-01,-1.34, 0.25, -2.96, 1.99, 1.75, 7.86, repro,
2007-02-02,-0.17, -0.10, -8.01, 2.01, 1.70, 7.70, repro,
2007-02-03,-0.32, -0.13, -9.93, 2.01, 1.70, 7.78, repro,
2007-02-04,-1.02, 0.31, -7.70, 1.96, 1.69, 7.58, repro,
2007-02-05,-0.68, 0.29, -14.34, 1.97, 1.69, 7.62, repro,
2007-02-06,-0.71, 0.84, -7.95, 2.01, 1.72, 7.74, repro,
2007-02-07,-2.36, -0.86, -7.36, 1.98, 1.71, 7.69, repro,
2007-02-08,-1.63, 3.01, -2.10, 2.04, 1.75, 7.80, repro,
2007-02-09,-1.16, 4.64, 10.15, 2.01, 1.74, 7.79, repro,
2007-02-10,-4.64, 2.36, -9.96, 2.01, 1.75, 7.87, repro,
2007-02-11,0.94, 1.83, -2.81, 1.98, 1.71, 7.68, repro,
2007-02-12,-0.95, -1.16, -15.63, 1.97, 1.70, 7.64, repro,
2007-02-13,-0.77, 0.19, -10.66, 2.00, 1.73, 7.92, repro,
2007-02-14,-0.71, 0.13, -12.91, 1.95, 1.67, 7.44, repro,
2007-02-15,0.22, -0.38, -9.88, 1.97, 1.68, 7.56, repro,
2007-02-16,0.49, -0.91, -9.51, 1.96, 1.70, 7.61, repro,
2007-02-17,-0.65, -0.26, -6.41, 2.02, 1.75, 7.85, repro,
2007-02-18,0.49, 0.62, 1.22, 1.98, 1.69, 7.72, repro,
2007-02-19,-0.86, -0.42, 3.67, 1.97, 1.68, 7.59, repro,
2007-02-20,-2.14, -0.78, 2.46, 2.00, 1.73, 7.73, repro,
2007-02-21,-0.86, 4.46, 5.82, 1.98, 1.68, 7.65, repro,
2007-02-22,-8.96, -1.19, -11.55, 1.99, 1.70, 7.75, repro,
2007-02-23,-1.61, -1.11, -14.50, 2.06, 1.77, 8.02, repro,
2007-02-24,-1.02, -0.48, -1.28, 1.98, 1.68, 7.67, repro,
2007-02-25,-2.34, -3.64, -16.18, 2.06, 1.75, 7.92, repro,
2007-02-26,-3.80, -5.18, 14.23, 2.02, 1.73, 7.80, repro,
2007-02-27,-2.00, -3.33, -15.02, 1.99, 1.73, 7.77, repro,
2007-02-28,-1.52, 0.22, 3.05, 1.99, 1.68, 7.66, repro,
2007-03-01,-1.22, -0.82, -0.59, 2.04, 1.76, 8.04, repro,
2007-03-02,-0.84, -0.98, -6.69, 2.05, 1.77, 8.06, repro,
2007-03-03,0.02, 0.18, -10.62, 2.02, 1.74, 7.86, repro,
2007-03-04,-1.05, 0.13, -9.80, 2.02, 1.74, 7.87, repro,
2007-03-05,-0.06, 1.14, -6.35, 2.02, 1.72, 7.81, repro,
2007-03-06,-1.63, -1.14, -4.23, 2.01, 1.71, 7.75, repro,
2007-03-07,-0.57, 0.47, 5.08, 2.00, 1.73, 7.79, repro,
2007-03-08,-0.06, -4.28, -2.66, 2.03, 1.71, 7.80, repro,
2007-03-09,-0.38, -1.30, -1.93, 2.01, 1.72, 7.77, repro,
2007-03-10,-0.49, 0.47, -1.27, 2.06, 1.75, 7.97, repro,
2007-03-11,-0.76, -1.26, -10.01, 2.01, 1.72, 7.73, repro,
2007-03-12,-1.64, -1.13, -7.88, 2.04, 1.76, 7.98, repro,
2007-03-13,-0.79, -0.70, -4.77, 1.99, 1.68, 7.63, repro,
2007-03-14,-0.90, -0.91, -0.65, 1.99, 1.66, 7.50, repro,
2007-03-15,-0.71, -0.79, -3.65, 2.00, 1.69, 7.63, repro,
2007-03-16,-1.11, -1.82, -7.53, 2.00, 1.68, 7.56, repro,
2007-03-17,-0.36, -1.90, -3.12, 1.99, 1.67, 7.55, repro,
2007-03-18,-1.02, -1.31, 0.56, 2.01, 1.73, 7.83, repro,
2007-03-19,-0.99, -1.60, 2.43, 1.99, 1.68, 7.63, repro,
2007-03-20,-4.47, -1.87, 9.63, 2.05, 1.69, 7.73, repro,
2007-03-21,-0.39, -2.17, 1.91, 2.06, 1.73, 7.89, repro,
2007-03-22,-0.50, -2.04, 5.02, 2.01, 1.73, 7.72, repro,
2007-03-23,-0.64, -1.33, 0.98, 2.00, 1.73, 7.81, repro,
2007-03-24,-1.26, -2.65, -0.51, 2.00, 1.70, 7.70, repro,
2007-03-25,-1.75, -1.51, 4.80, 2.05, 1.70, 7.76, repro,
2007-03-26,-2.84, -2.70, -3.59, 1.97, 1.65, 7.46, repro,
2007-03-27,-1.13, -4.92, -5.16, 2.06, 1.73, 7.93, repro,
2007-03-28,0.06, -2.48, -3.88, 2.04, 1.69, 7.75, repro,
2007-03-29,-0.56, -2.21, -10.50, 1.99, 1.70, 7.69, repro,
2007-03-30,-0.79, -1.08, -7.78, 1.98, 1.66, 7.52, repro,
2007-03-31,-0.55, -2.11, -5.87, 1.98, 1.65, 7.46, repro,
2007-04-01,-0.41, -1.26, 1.63, 1.97, 1.64, 7.40, repro,
2007-04-02,-0.98, -3.34, 2.45, 1.99, 1.66, 7.54, repro,
2007-04-03,-0.72, -0.83, -7.10, 2.03, 1.75, 7.93, repro,
2007-04-04,-0.69, -2.46, -10.33, 2.01, 1.71, 7.74, repro,
2007-04-05,-1.47, -2.39, -7.94, 2.12, 1.82, 8.17, repro,
2007-04-06,-0.49, -1.98, -15.30, 2.09, 1.79, 8.03, repro,
2007-04-07,-0.56, -1.83, -4.10, 2.02, 1.70, 7.71, repro,
2007-04-08,-1.89, -0.61, 8.02, 2.00, 1.67, 7.64, repro,
2007-04-09,-0.06, -0.51, -0.48, 1.98, 1.66, 7.53, repro,
2007-04-10,-0.77, 1.41, 11.44, 2.03, 1.71, 7.72, repro,
2007-04-11,-1.26, 2.37, -0.94, 2.15, 1.79, 8.19, repro,
2007-04-12,0.97, -3.36, -1.67, 1.99, 1.65, 7.54, repro,
2007-04-13,0.33, -1.57, -8.34, 1.99, 1.66, 7.59, repro,
2007-04-14,-2.31, -2.47, 1.74, 2.01, 1.69, 7.66, repro,
2007-04-15,-1.57, -0.74, -0.36, 2.06, 1.70, 7.85, repro,
2007-04-16,-0.44, -2.58, -7.47, 2.01, 1.66, 7.67, repro,
2007-04-17,-1.66, -3.52, -8.42, 2.06, 1.67, 7.77, repro,
2007-04-18,-3.51, -4.28, -6.17, 2.00, 1.68, 7.67, repro,
2007-04-19,0.71, -2.19, -11.86, 2.54, 1.95, 9.26, repro,
2007-04-20,0.54, -0.47, -0.40, 1.99, 1.66, 7.64, repro,
2007-04-21,-0.52, -1.82, -4.97, 1.99, 1.66, 7.59, repro,
2007-04-22,-1.23, -0.44, 10.52, 2.00, 1.66, 7.60, repro,
2007-04-23,1.20, -2.47, -7.41, 2.03, 1.68, 7.64, repro,
2007-04-24,-1.42, -2.19, -12.00, 2.07, 1.76, 7.86, repro,
2007-04-25,-1.05, -2.53, -7.89, 2.05, 1.69, 7.78, repro,
2007-04-26,-1.16, -1.82, -1.00, 2.01, 1.67, 7.69, repro,
2007-04-27,1.26, -2.88, -12.25, 1.98, 1.64, 7.49, repro,
2007-04-28,-0.60, -2.52, -8.08, 1.98, 1.63, 7.51, repro,
2007-04-29,-0.56, -1.73, -3.10, 2.01, 1.65, 7.62, repro,
2007-04-30,-0.76, -2.30, -7.50, 2.02, 1.65, 7.67, repro,
2007-05-01,-0.07, -2.57, -8.19, 2.01, 1.65, 7.70, repro,
2007-05-02,-3.03, -1.56, 1.14, 2.09, 1.67, 7.99, repro,
2007-05-03,-3.56, -3.83, -0.87, 2.14, 1.69, 8.03, repro,
2007-05-04,-1.06, 3.07, 6.46, 2.00, 1.64, 7.55, repro,